Payson, AZ

1:35 PM MST on March 29, 2017 (GMT -0700)
Payson

Weather History for KPAN - March, 2014

Change the Weather History Date:

Friday, March 21, 2014

  Actual Average Record
Temperature  
Mean Temperature 52 °F -  
Max Temperature 64 °F 64 °F 75 °F (2017)
Min Temperature 39 °F 30 °F 32 °F (2012)
Degree Days  
Heating Degree Days 14    
Growing Degree Days 2 (Base 50)    
Moisture  
Dew Point 14 °F    
Average Humidity 24    
Maximum Humidity 36    
Minimum Humidity 12    
Precipitation  
Precipitation 0.00 in - - ()
Sea Level Pressure  
Sea Level Pressure 30.03 in    
Wind  
Wind Speed 2 mph (WSW)    
Max Wind Speed 13 mph    
Max Gust Speed 21 mph    
Visibility 10 miles    
Events      
Averages and records for this station are not official NWS values.
T = Trace of Precipitation, MM = Missing Value Source: NWS Daily Summary

Daily Weather History Graph

Daily Weather History Graph

Search for Another Location

Airport or City:

Trip Planner

Search our weather history database for the weather conditions in past years. The results will help you decide how hot, cold, wet, or windy it might be!

Date:

Astronomy

Mar. 21, 2014 Rise Set
Actual Time 6:27 AM MST 6:37 PM MST
Civil Twilight 6:02 AM MST 7:02 PM MST
Nautical Twilight 5:33 AM MST 7:32 PM MST
Astronomical Twilight 5:03 AM MST 8:01 PM MST
Moon 11:49 PM MST (3/21) 9:34 AM MST (3/21)
Length of Visible Light 13h 00m
Length of Day
12h 10m
Waning Gibbous, 74% of the Moon is Illuminated
Mar 21
Waning Gibbous
Mar 23
Last Quarter
Mar 30
New
Apr 7
First Quarter
Apr 15
Full

Hourly Weather History & Observations

Time (MST) Temp. Windchill Dew Point Humidity Pressure Visibility Wind Dir Wind Speed Gust Speed Precip Events Conditions
12:15 AM 44.6 °F - 15.8 °F 31% 30.04 in 10.0 mi Calm Calm - N/A   Clear
12:35 AM 44.6 °F - 15.8 °F 31% 30.03 in 10.0 mi Calm Calm - N/A   Clear
12:55 AM 44.6 °F - 15.8 °F 31% 30.03 in 10.0 mi Calm Calm - N/A   Clear
1:15 AM 42.8 °F - 15.8 °F 34% 30.03 in 10.0 mi Calm Calm - N/A   Clear
1:35 AM 42.8 °F - 14.0 °F 31% 30.03 in 10.0 mi Calm Calm - N/A   Clear
1:55 AM 41.0 °F - 14.0 °F 33% 30.02 in 10.0 mi Calm Calm - N/A   Clear
2:15 AM 42.8 °F - 14.0 °F 31% 30.02 in 10.0 mi Calm Calm - N/A   Clear
2:35 AM 42.8 °F - 14.0 °F 31% 30.01 in 10.0 mi Calm Calm - N/A   Clear
2:55 AM 41.0 °F - 14.0 °F 33% 30.01 in 10.0 mi Calm Calm - N/A   Clear
3:15 AM 42.8 °F - 12.2 °F 29% 30.01 in 10.0 mi Calm Calm - N/A   Clear
3:35 AM 41.0 °F - 12.2 °F 31% 30.01 in 10.0 mi Calm Calm - N/A   Clear
3:55 AM 41.0 °F - 14.0 °F 33% 30.00 in 10.0 mi Calm Calm - N/A   Clear
4:15 AM 41.0 °F - 14.0 °F 33% 30.00 in 10.0 mi Calm Calm - N/A   Clear
4:35 AM 39.2 °F - 12.2 °F 33% 30.00 in 10.0 mi Calm Calm - N/A   Clear
4:55 AM 41.0 °F - 12.2 °F 31% 30.00 in 10.0 mi Calm Calm - N/A   Clear
5:15 AM 41.0 °F - 12.2 °F 31% 30.00 in 10.0 mi Calm Calm - N/A   Clear
5:35 AM 41.0 °F - 12.2 °F 31% 30.00 in 10.0 mi Calm Calm - N/A   Clear
5:55 AM 39.2 °F - 14.0 °F 36% 30.01 in 10.0 mi Calm Calm - N/A   Clear
6:15 AM 39.2 °F - 12.2 °F 33% 30.01 in 10.0 mi Calm Calm - N/A   Clear
6:35 AM 39.2 °F - 12.2 °F 33% 30.02 in 10.0 mi Calm Calm - N/A   Clear
6:55 AM 39.2 °F - 14.0 °F 36% 30.02 in 10.0 mi Calm Calm - N/A   Clear
7:15 AM 39.2 °F - 14.0 °F 36% 30.03 in 10.0 mi Calm Calm - N/A   Clear
7:35 AM 42.8 °F - 15.8 °F 34% 30.03 in 10.0 mi Calm Calm - N/A   Clear
7:55 AM 44.6 °F - 15.8 °F 31% 30.04 in 10.0 mi Calm Calm - N/A   Clear
8:15 AM 50.0 °F - 17.6 °F 28% 30.04 in 10.0 mi Calm Calm - N/A   Clear
8:35 AM 53.6 °F - 17.6 °F 24% 30.04 in 10.0 mi Calm Calm - N/A   Clear
8:55 AM 55.4 °F - 17.6 °F 23% 30.05 in 10.0 mi Calm Calm - N/A   Clear
9:15 AM 57.2 °F - 17.6 °F 21% 30.05 in 10.0 mi Variable 3.5 mph - N/A   Clear
9:35 AM 59.0 °F - 15.8 °F 19% 30.06 in 10.0 mi SSW 5.8 mph - N/A   Clear
9:55 AM 59.0 °F - 12.2 °F 16% 30.06 in 10.0 mi Variable 4.6 mph - N/A   Clear
10:15 AM 59.0 °F - 12.2 °F 16% 30.06 in 10.0 mi Variable 4.6 mph 11.5 mph N/A   Clear
10:35 AM 59.0 °F - 12.2 °F 16% 30.06 in 10.0 mi Variable 5.8 mph 12.7 mph N/A   Clear
10:55 AM 60.8 °F - 12.2 °F 15% 30.06 in 10.0 mi SSW 8.1 mph - N/A   Clear
11:15 AM 60.8 °F - 10.4 °F 14% 30.06 in 10.0 mi SW 10.4 mph - N/A   Clear
11:35 AM 62.6 °F - 10.4 °F 13% 30.06 in 10.0 mi SW 11.5 mph 17.3 mph N/A   Clear
11:55 AM 60.8 °F - 10.4 °F 14% 30.05 in 10.0 mi Variable 5.8 mph 17.3 mph N/A   Clear
12:15 PM 62.6 °F - 12.2 °F 14% 30.05 in 10.0 mi SSW 8.1 mph 18.4 mph N/A   Clear
12:35 PM 62.6 °F - 12.2 °F 14% 30.05 in 10.0 mi Variable 4.6 mph 15.0 mph N/A   Clear
12:55 PM 62.6 °F - 14.0 °F 15% 30.04 in 10.0 mi SSW 9.2 mph 16.1 mph N/A   Clear
1:15 PM 62.6 °F - 15.8 °F 16% 30.03 in 10.0 mi SSW 12.7 mph 18.4 mph N/A   Clear
1:35 PM 64.4 °F - 14.0 °F 14% 30.03 in 10.0 mi SSW 12.7 mph - N/A   Clear
1:55 PM 62.6 °F - 12.2 °F 14% 30.03 in 10.0 mi West 11.5 mph 17.3 mph N/A   Clear
2:15 PM 64.4 °F - 12.2 °F 13% 30.02 in 10.0 mi West 10.4 mph - N/A   Clear
2:35 PM 64.4 °F - 12.2 °F 13% 30.01 in 10.0 mi West 9.2 mph 18.4 mph N/A   Clear
2:55 PM 64.4 °F - 10.4 °F 12% 30.01 in 10.0 mi WSW 8.1 mph 18.4 mph N/A   Clear
3:15 PM 64.4 °F - 12.2 °F 13% 30.01 in 10.0 mi WSW 11.5 mph - N/A   Clear
3:35 PM 64.4 °F - 12.2 °F 13% 30.01 in 10.0 mi West 12.7 mph 20.7 mph N/A   Clear
3:55 PM 62.6 °F - 12.2 °F 14% 30.00 in 10.0 mi West 8.1 mph 18.4 mph N/A   Clear
4:15 PM 62.6 °F - 12.2 °F 14% 30.00 in 10.0 mi WSW 11.5 mph 18.4 mph N/A   Clear
4:35 PM 62.6 °F - 14.0 °F 15% 30.00 in 10.0 mi WSW 10.4 mph 19.6 mph N/A   Clear
4:55 PM 62.6 °F - 12.2 °F 14% 30.00 in 10.0 mi West 9.2 mph - N/A   Clear
5:15 PM 62.6 °F - 10.4 °F 13% 30.00 in 10.0 mi Variable 5.8 mph 13.8 mph N/A   Clear
5:35 PM 62.6 °F - 10.4 °F 13% 30.00 in 10.0 mi West 8.1 mph 15.0 mph N/A   Clear
5:55 PM 60.8 °F - 10.4 °F 14% 30.00 in 10.0 mi WSW 8.1 mph - N/A   Clear
6:15 PM 60.8 °F - 10.4 °F 14% 30.00 in 10.0 mi WSW 5.8 mph 11.5 mph N/A   Clear
6:35 PM 59.0 °F - 12.2 °F 16% 30.01 in 10.0 mi SW 6.9 mph - N/A   Clear
6:55 PM 55.4 °F - 14.0 °F 20% 30.01 in 10.0 mi Calm Calm - N/A   Clear
7:15 PM 51.8 °F - 14.0 °F 22% 30.01 in 10.0 mi Calm Calm - N/A   Clear
7:35 PM 51.8 °F - 14.0 °F 22% 30.02 in 10.0 mi Calm Calm - N/A   Clear
7:55 PM 51.8 °F - 14.0 °F 22% 30.02 in 10.0 mi South 3.5 mph - N/A   Clear
8:15 PM 51.8 °F - 12.2 °F 21% 30.03 in 10.0 mi Calm Calm - N/A   Clear
8:35 PM 51.8 °F - 14.0 °F 22% 30.03 in 10.0 mi Calm Calm - N/A   Clear
8:55 PM 50.0 °F - 15.8 °F 26% 30.03 in 10.0 mi Calm Calm - N/A   Clear
9:15 PM 50.0 °F - 14.0 °F 24% 30.04 in 10.0 mi Calm Calm - N/A   Clear
9:35 PM 48.2 °F - 14.0 °F 25% 30.04 in 10.0 mi Calm Calm - N/A   Clear
9:55 PM 48.2 °F - 15.8 °F 27% 30.04 in 10.0 mi Calm Calm - N/A   Clear
10:15 PM 50.0 °F - 15.8 °F 26% 30.03 in 10.0 mi Calm Calm - N/A   Clear
10:35 PM 44.6 °F 42.2 °F 15.8 °F 31% 30.03 in 10.0 mi North 4.6 mph - N/A   Clear
10:55 PM 42.8 °F - 15.8 °F 34% 30.03 in 10.0 mi Calm Calm - N/A   Clear
11:15 PM 42.8 °F - 15.8 °F 34% 30.03 in 10.0 mi Calm Calm - N/A   Clear
11:35 PM 42.8 °F - 15.8 °F 34% 30.03 in 10.0 mi Calm Calm - N/A   Clear
11:55 PM 42.8 °F - 15.8 °F 34% 30.03 in 10.0 mi Calm Calm - N/A   Clear